Stations météo

Publicité
Poitiers, France (7335): Température de l'air & dewpoint: 22.01.2020 18:00:00 - 28.01.2020 18:00:00 (CET)Poitiers, France (7335): Température de l'air 5cm: 22.01.2020 18:00:00 - 28.01.2020 18:00:00 (CET)Poitiers, France (7335): Température de l'air -20cm & Température de l'air -100cm: 22.01.2020 18:00:00 - 28.01.2020 18:00:00 (CET)Poitiers, France (7335): Vitesse du vent & gusts: 22.01.2020 18:00:00 - 28.01.2020 18:00:00 (CET)Poitiers, France (7335): Direction du vent: 22.01.2020 18:00:00 - 28.01.2020 18:00:00 (CET)Poitiers, France (7335): reduced air pressure: 22.01.2020 18:00:00 - 28.01.2020 18:00:00 (CET)Poitiers, France (7335): visibility: 22.01.2020 18:00:00 - 28.01.2020 18:00:00 (CET)Poitiers, France (7335): Ensoleillement: 22.01.2020 18:00:00 - 28.01.2020 18:00:00 (CET)Poitiers, France (7335): Quantités de précipitations: 22.01.2020 18:00:00 - 28.01.2020 18:00:00 (CET)
Date & Time tt [°C] td [°C] tt 5cm [°C] tt -20cm [°C] tt -100cm [°C] ff [km/h] ff [knt] fx [km/h] fx [knt] dd ppp [hPa] vv [km] sd [min] rr [mm]
28.01.2020 18:00:00 8,1 4,7 6,8 7,8 9,2 30 16 53 29 WSW 1012,5 52 0 0,4
28.01.2020 17:00:00 8,8 6,4 8,0 7,7 9,1 30 16 51 28 WSW 1012,2 18 7 0,0
28.01.2020 16:00:00 9,2 5,2 9,3 7,7 9,1 30 16 50 27 WSW 1012,2 15 23 0,0
28.01.2020 15:00:00 9,6 5,0 10,4 7,6 9,2 28 15 53 29 WSW 1011,9 18 29 0,0
28.01.2020 14:00:00 10,1 5,9 9,5 7,6 9,1 24 13 45 25 WSW 1012,1 17 19 0,0
28.01.2020 13:00:00 8,4 5,3 8,7 7,6 9,1 27 14 46 25 WSW 1012,3 25 0 0,0
28.01.2020 12:00:00 7,9 5,0 7,5 7,6 9,2 27 14 46 25 SW 1012,2 32 0 0,0
28.01.2020 11:00:00 7,4 3,8 6,8 7,6 9,2 24 13 41 22 WSW 1012,0 31 0 0,0
28.01.2020 10:00:00 6,9 4,0 5,5 7,7 9,2 27 15 49 26 SW 1011,1 43 0 0,0
28.01.2020 09:00:00 6,0 4,0 4,9 7,7 9,2 23 13 50 27 WSW 1010,5 3,5 0 0,0
28.01.2020 08:00:00 6,5 4,0 5,2 7,7 9,1 28 15 54 29 W 1009,7 59 0 0,2
28.01.2020 07:00:00 7,1 4,6 5,5 7,7 9,1 25 14 50 27 WSW 1008,7 40 0 0,0
28.01.2020 06:00:00 6,9 4,7 5,6 7,7 9,2 27 15 54 29 WSW 1007,6 51 0 0,0
28.01.2020 05:00:00 7,1 5,2 5,9 7,7 9,2 28 15 56 30 WSW 1006,7 60 0 0,6
28.01.2020 04:00:00 8,0 6,6 6,8 7,8 9,2 31 17 56 30 W 1006,1 2,7 0 1,0
28.01.2020 03:00:00 7,6 5,9 6,1 7,8 9,2 31 17 47 26 SW 1005,6 44 0 0,0
28.01.2020 02:00:00 7,1 5,1 4,3 7,8 9,1 33 18 46 25 SW 1006,0 60 0 0,0
28.01.2020 01:00:00 5,4 4,4 4,0 7,8 9,1 30 16 74 40 SW 1006,1 60 0 5,5
28.01.2020 00:00:00 8,8 7,7 7,8 7,8 9,2 32 18 52 28 SSW 1006,3 58 0 0,0
27.01.2020 23:00:00 8,0 7,1 7,0 7,8 9,1 25 13 43 23 SW 1007,4 60 0 0,0
27.01.2020 22:00:00 7,9 6,8 7,4 7,8 9,1 33 18 47 26 SSW 1007,3 60 0 0,0
27.01.2020 21:00:00 7,9 6,8 7,4 7,7 9,1 29 16 58 31 SSW 1007,5 60 0 0,2
27.01.2020 20:00:00 8,8 7,9 8,3 7,7 9,1 26 14 48 26 SW 1007,6 19 0 0,9
27.01.2020 19:00:00 9,4 8,6 8,8 7,7 9,1 24 13 45 24 SW 1007,4 18 0 3,8
27.01.2020 18:00:00 9,6 9,0 9,1 7,6 9,1 36 19 55 30 SSW 1007,1 3,9 0 1,6
27.01.2020 17:00:00 9,9 9,1 9,4 7,6 9,1 30 16 50 27 SSW 1007,2 8 5 0,4
27.01.2020 16:00:00 9,7 8,6 8,7 7,6 9,1 36 19 56 30 SSW 1008,3 25 2 0,0
27.01.2020 15:00:00 8,6 7,8 8,2 7,6 9,1 36 19 61 33 S 1009,0 34 0 0,0
27.01.2020 14:00:00 8,1 7,7 7,6 7,6 9,1 31 17 52 28 S 1010,1 20 0 1,1
27.01.2020 13:00:00 7,6 7,2 7,2 7,5 9,1 30 16 44 24 S 1011,9 12 0 2,0
27.01.2020 12:00:00 7,3 6,9 6,9 7,5 9,1 22 12 39 21 SSW 1013,2 7 0 1,4
27.01.2020 11:00:00 7,2 6,5 6,9 7,5 9,1 27 15 42 23 S 1013,6 8 0 0,8
27.01.2020 10:00:00 7,3 6,6 6,8 7,5 9,1 27 15 44 24 S 1014,0 9 0 0,8
27.01.2020 09:00:00 7,4 6,3 6,9 7,5 9,1 30 16 47 25 S 1013,9 16 0 0,0
27.01.2020 08:00:00 7,7 6,6 7,1 7,5 9,1 31 17 46 25 S 1013,8 20 0 0,0
27.01.2020 07:00:00 7,9 7,0 7,4 7,5 9,1 29 16 46 25 S 1014,4 18 0 0,0
27.01.2020 06:00:00 7,9 6,8 7,2 7,5 9,1 26 14 45 25 SSW 1015,0 19 0 0,0
27.01.2020 05:00:00 7,9 6,7 7,2 7,5 9,1 32 17 54 29 S 1015,2 30 0 0,0
27.01.2020 04:00:00 7,9 7,0 7,5 7,5 9,1 26 14 39 21 S 1016,2 16 0 0,0
27.01.2020 03:00:00 8,2 7,6 7,8 7,5 9,1 28 15 43 23 S 1016,7 13 0 0,2
27.01.2020 02:00:00 8,6 7,8 8,1 7,4 9,1 27 15 40 22 SSW 1016,9 14 0 0,0
27.01.2020 01:00:00 8,9 8,1 8,4 7,4 9,1 26 14 42 23 S 1017,3 11 0 0,0
27.01.2020 00:00:00 9,3 8,2 9,0 7,4 9,1 27 14 41 22 SSW 1017,6 15 0 0,0
26.01.2020 23:00:00 9,4 8,2 9,1 7,4 9,1 26 14 40 22 SSW 1018,0 19 0 0,0
26.01.2020 22:00:00 9,5 8,1 9,0 7,3 9,1 24 13 34 18 SSW 1018,2 20 0 0,0
26.01.2020 21:00:00 9,7 8,0 9,1 7,3 9,1 24 13 36 19 SSW 1018,5 20 0 0,0
26.01.2020 20:00:00 9,6 7,5 8,9 7,2 9,1 21 11 28 15 SSW 1018,5 34 0 0,0
26.01.2020 19:00:00 9,9 7,7 8,8 7,2 9,1 16 9 22 12 S 1018,3 34 0 0,0
26.01.2020 18:00:00 9,9 7,5 9,2 7,1 9,1 13 7 24 13 SSW 1018,5 35 0 0,0
26.01.2020 17:00:00 10,8 7,8 10,5 7,0 9,1 16 9 27 14 S 1018,2 37 0 0,0
26.01.2020 16:00:00 11,1 8,1 11,5 6,9 9,1 19 11 30 16 SSW 1018,4 35 18 0,0
26.01.2020 15:00:00 11,1 8,1 11,7 6,8 9,1 16 8 31 17 SW 1018,5 20 3 0,0
26.01.2020 14:00:00 10,9 7,8 12,0 6,7 9,1 20 11 30 16 SW 1018,8 20 22 0,0
26.01.2020 13:00:00 10,3 7,7 12,6 6,7 9,1 15 8 22 12 SW 1019,0 18 49 0,0
26.01.2020 12:00:00 9,6 8,7 9,0 6,6 9,1 14 8 20 11 SW 1019,6 11 6 0,0
26.01.2020 11:00:00 8,0 7,7 7,3 6,6 9,1 13 7 19 10 SW 1019,4 9 0 0,0
26.01.2020 10:00:00 6,9 6,8 5,2 6,6 9,1 9 5 12 7 S 1019,0 9 0 0,0
26.01.2020 09:00:00 6,5 6,4 4,2 6,6 9,1 8 4 13 7 S 1018,6 10 0 0,0
26.01.2020 08:00:00 6,2 5,8 5,6 6,6 9,2 10 6 16 9 SSW 1018,3 10 0 0,0
26.01.2020 07:00:00 6,5 6,2 5,8 6,6 9,2 6 3 11 6 S 1017,7 10 0 0,4
26.01.2020 06:00:00 6,2 5,6 5,8 6,6 9,1 7 4 13 7 S 1017,6 8 0 0,2
26.01.2020 05:00:00 6,2 5,5 4,8 6,7 9,2 10 5 15 8 SSE 1017,3 15 0 0,0
26.01.2020 04:00:00 6,1 5,2 4,3 6,7 9,1 6 3 13 7 SSE 1017,3 17 0 0,0
26.01.2020 03:00:00 5,6 4,9 1,5 6,7 9,2 10 5 14 8 SSE 1017,6 15 0 0,0
26.01.2020 02:00:00 6,0 5,1 3,6 6,7 9,2 7 4 12 7 SSW 1017,6 17 0 0,0
26.01.2020 01:00:00 5,5 4,8 2,3 6,7 9,2 6 4 9 5 S 1017,7 14 0 0,0
26.01.2020 00:00:00 6,1 4,9 1,0 6,7 9,2 7 4 12 6 SSE 1017,8 16 0 0,0
25.01.2020 23:00:00 5,8 4,1 1,5 6,7 9,2 6 3 8 5 SSE 1018,1 11 0 0,0
25.01.2020 22:00:00 6,8 5,7 1,3 6,7 9,2 5 3 6 4 S 1018,1 13 0 0,0
25.01.2020 21:00:00 7,2 5,3 3,8 6,7 9,2 5 3 7 4 S 1018,0 10 0 0,0
25.01.2020 20:00:00 9,0 6,1 5,1 6,6 9,2 6 3 9 5 SE 1017,9 18 0 0,0
25.01.2020 19:00:00 10,0 6,3 5,7 6,6 9,2 6 3 8 4 ESE 1017,6 15 0 0,0
25.01.2020 18:00:00 10,2 6,2 6,0 6,5 9,2 3 2 7 4 SE 1017,4 41 6 0,0
25.01.2020 17:00:00 11,3 6,6 10,2 6,4 9,2 5 3 15 8 SSE 1017,3 54 0 0,0
25.01.2020 16:00:00 12,0 6,5 12,1 6,3 9,2 11 6 23 12 SSE 1017,4 52 35 0,0
25.01.2020 15:00:00 12,0 6,3 12,2 6,2 9,2 14 8 26 14 S 1017,8 52 4 0,0
25.01.2020 14:00:00 11,9 6,2 12,8 6,1 9,2 16 8 26 14 S 1018,5 39 41 0,0
25.01.2020 13:00:00 12,1 6,6 14,7 6,1 9,2 16 8 27 14 SSE 1019,1 20 60 0,0
25.01.2020 12:00:00 10,2 6,5 9,8 6,1 9,2 14 7 22 12 S 1019,8 17 60 0,0
25.01.2020 11:00:00 7,6 5,6 5,5 6,1 9,2 12 7 18 10 SSE 1020,0 39 38 0,0
25.01.2020 10:00:00 4,6 4,3 0,9 6,2 9,2 11 6 16 9 SSE 1020,2 18 39 0,0
25.01.2020 09:00:00 2,9 2,8 -2,0 6,2 9,2 10 5 17 9 SE 1020,3 11 4 0,0
25.01.2020 08:00:00 1,5 1,2 -1,7 6,3 9,2 8 5 14 8 SSE 1020,1 3,4 0 0,0
25.01.2020 07:00:00 2,9 2,9 -1,3 6,3 9,2 6 3 10 5 ESE 1020,0 7 0 0,0
25.01.2020 06:00:00 2,7 2,4 -2,0 6,4 9,2 8 4 17 9 SSE 1019,8 5 0 0,0
25.01.2020 05:00:00 1,3 1,0 -1,9 6,5 9,2 6 3 15 8 SSE 1019,9 6 0 0,0
25.01.2020 04:00:00 2,1 1,8 -2,1 6,5 9,2 7 4 13 7 SSE 1020,3 0,5 0 0,0
25.01.2020 03:00:00 1,9 1,6 -2,0 6,5 9,2 3 2 10 6 SSE 1020,7 0,2 0 0,0
25.01.2020 02:00:00 3,9 3,6 0,0 6,6 9,2 6 3 11 6 ESE 1020,8 6 0 0,0
25.01.2020 01:00:00 3,2 2,8 -0,6 6,6 9,2 4 2 11 6 ESE 1021,0 7 0 0,0
25.01.2020 00:00:00 4,6 4,2 -0,9 6,6 9,3 9 5 12 6 ENE 1021,3 12 0 0,0
24.01.2020 23:00:00 4,3 3,9 -0,3 6,6 9,2 3 2 9 5 E 1021,3 15 0 0,0
24.01.2020 22:00:00 5,8 4,8 1,4 6,6 9,3 6 4 10 5 ENE 1021,3 13 0 0,0
24.01.2020 21:00:00 6,6 3,7 3,1 6,6 9,3 6 3 12 6 ENE 1021,1 12 0 0,0
24.01.2020 20:00:00 8,4 5,5 6,1 6,5 9,3 8 5 11 6 ENE 1020,8 14 0 0,0
24.01.2020 19:00:00 9,5 5,7 6,9 6,5 9,3 6 3 10 6 ENE 1020,6 16 0 0,0
24.01.2020 18:00:00 10,0 5,2 7,0 6,4 9,3 8 4 10 6 NNE 1020,5 45 11 0,0
24.01.2020 17:00:00 12,3 4,0 10,5 6,3 9,4 0 0 5 3 N 1020,3 59 19 0,0
24.01.2020 16:00:00 14,4 5,5 13,9 6,1 9,3 3 2 17 9 WSW 1020,1 56 32 0,0
24.01.2020 15:00:00 13,7 6,3 17,7 6,0 9,3 12 7 21 11 SW 1020,3 20 60 0,0
24.01.2020 14:00:00 13,5 7,5 17,7 6,0 9,4 9 5 21 11 S 1020,8 52 60 0,0
24.01.2020 13:00:00 12,4 7,1 14,5 5,9 9,4 11 6 19 10 S 1021,6 22 60 0,0
24.01.2020 12:00:00 9,2 6,1 10,8 5,9 9,3 8 4 15 8 SE 1022,4 12 55 0,0
24.01.2020 11:00:00 6,4 3,7 6,2 5,9 9,4 4 2 6 3 E 1022,4 7 60 0,0
24.01.2020 10:00:00 2,7 2,1 -0,5 5,9 9,3 4 2 7 4 ESE 1022,5 6 60 0,0
24.01.2020 09:00:00 0,7 0,0 -1,7 6,0 9,4 3 2 6 4 W 1022,4 4,6 3 0,0
24.01.2020 08:00:00 1,8 0,8 -0,1 6,0 9,4 4 2 8 4 E 1022,1 6 0 0,0
24.01.2020 07:00:00 0,7 -0,3 -1,4 6,0 9,4 4 2 9 5 N 1021,9 4,3 0 0,0
24.01.2020 06:00:00 1,4 0,7 0,2 6,0 9,4 5 3 8 5 NNE 1021,6 5 0 0,0
24.01.2020 05:00:00 0,5 -0,4 -0,8 6,1 9,4 6 3 8 4 NW 1021,5 4,5 0 0,0
24.01.2020 04:00:00 0,3 -0,6 -1,9 6,1 9,4 3 2 8 4 W 1021,9 4,8 0 0,0
24.01.2020 03:00:00 -0,1 -1,2 -2,5 6,1 9,4 6 4 8 4 NNE 1022,2 6 0 0,0
24.01.2020 02:00:00 0,6 -0,6 -1,9 6,1 9,4 5 3 10 5 ENE 1022,2 6 0 0,0
24.01.2020 01:00:00 0,7 -0,3 -1,9 6,1 9,4 8 4 16 9 NNE 1022,6 6 0 0,0
24.01.2020 00:00:00 1,5 -0,4 0,5 6,1 9,4 11 6 18 10 NE 1022,8 7 0 0,0
23.01.2020 23:00:00 2,4 0,6 0,1 6,2 9,4 10 5 14 8 NNE 1022,9 7 0 0,0
23.01.2020 22:00:00 3,0 0,2 1,8 6,1 9,4 5 3 14 8 E 1023,4 8 0 0,0
23.01.2020 21:00:00 3,6 0,5 3,2 6,1 9,4 9 5 16 9 NE 1022,9 9 0 0,0
23.01.2020 20:00:00 3,6 0,8 3,5 6,1 9,5 10 6 15 8 N 1023,4 8 0 0,0
23.01.2020 19:00:00 3,9 0,4 3,6 6,1 9,5 8 4 20 11 ENE 1023,6 9 0 0,0
23.01.2020 18:00:00 4,0 0,3 3,8 6,0 9,5 14 8 26 14 NE 1023,3 9 0 0,0
23.01.2020 17:00:00 4,4 0,9 4,5 6,0 9,5 13 7 30 16 NNE 1023,1 9 0 0,0
23.01.2020 16:00:00 5,0 0,4 5,5 6,0 9,5 18 10 24 13 NNE 1023,5 11 0 0,0
23.01.2020 15:00:00 5,4 0,9 6,6 6,0 9,5 14 7 28 15 NNE 1023,7 11 0 0,0
23.01.2020 14:00:00 5,0 0,2 4,7 5,9 9,5 15 8 27 15 NE 1024,6 10 0 0,0
23.01.2020 13:00:00 3,3 0,0 4,1 5,9 9,5 16 8 27 15 NNE 1025,2 9 0 0,0
23.01.2020 12:00:00 2,7 0,1 3,3 5,9 9,5 16 9 24 13 NNE 1026,0 8 0 0,0
23.01.2020 11:00:00 1,8 -0,1 2,0 6,0 9,5 11 6 19 10 NNE 1026,3 7 0 0,0
23.01.2020 10:00:00 1,2 -0,4 1,1 6,0 9,5 11 6 30 16 NNE 1026,3 7 0 0,0
23.01.2020 09:00:00 1,1 -0,5 0,0 6,0 9,5 16 9 23 12 NNE 1026,1 6 0 0,0
23.01.2020 08:00:00 0,2 -0,8 -1,2 6,0 9,6 9 5 16 8 N 1026,2 6 0 0,0
23.01.2020 07:00:00 -0,2 -1,2 -1,1 6,1 9,6 12 6 17 9 N 1026,1 5 0 0,0
23.01.2020 06:00:00 0,4 -1,0 -0,8 6,1 9,6 14 7 19 10 NNE 1026,2 6 0 0,0
23.01.2020 05:00:00 0,6 -1,2 -0,4 6,1 9,6 11 6 23 12 NNE 1026,4 6 0 0,0
23.01.2020 04:00:00 1,2 -0,7 0,4 6,1 9,6 11 6 22 12 NE 1027,2 7 0 0,0
23.01.2020 03:00:00 1,5 -0,6 0,8 6,1 9,6 14 8 22 12 NE 1028,0 8 0 0,0
23.01.2020 02:00:00 2,0 -0,4 1,3 6,1 9,6 14 8 23 13 NNE 1028,0 9 0 0,0
23.01.2020 01:00:00 2,7 -0,1 2,2 6,2 9,6 15 8 26 14 NE 1028,5 10 0 0,0
23.01.2020 00:00:00 3,0 0,1 2,6 6,2 9,6 15 8 21 12 NNE 1028,9 10 0 0,0
22.01.2020 23:00:00 3,6 0,3 2,8 6,2 9,6 13 7 24 13 NE 1029,0 11 0 0,0
22.01.2020 22:00:00 3,8 0,3 2,8 6,2 9,6 13 7 24 13 NE 1029,1 12 0 0,0
22.01.2020 21:00:00 3,8 0,3 2,8 6,2 9,6 12 6 28 15 NE 1029,1 13 0 0,0
22.01.2020 20:00:00 4,4 0,4 3,3 6,1 9,6 15 8 27 14 NE 1028,8 14 0 0,0
22.01.2020 19:00:00 4,5 0,3 3,8 6,1 9,6 13 7 25 14 NE 1029,1 15 0 0,0
22.01.2020 18:00:00 5,0 0,6 3,8 6,1 9,7 17 9 25 14 NNE 1028,8 17 0 0,0

tt = Température de l'air
td = dewpoint
tt 5cm = Température de l'air 5cm
tt -20cm = Température de l'air -20cm
tt -100cm = Température de l'air -100cm
ff = Vitesse du vent
fx = gusts
dd = Direction du vent
ppp = reduced air pressure
vv = visibility
sd = Ensoleillement
rr = Quantités de précipitations

stations d'obs. à proximité